Regional Weather Roundup
Issued by NWS Albany, NY

Home | Current Version | Previous Version | Text Only | Print | Product List | Glossary On
Versions: 1 2 3 4 5 6 7 8 9 10 11 12 13 14 15 16 17 18 19 20 21 22 23 24 25 26 27 28 29 30 31 32 33 34 35 36 37 38 39 40 41 42 43 44 45 46 47 48 49 50
000
ASUS41 KALY 270610
RWRALY

NEW YORK STATE HOURLY WEATHER ROUNDUP
NATIONAL WEATHER SERVICE ALBANY NY
200 AM EDT MON APR 27 2015

NOTE: "FAIR" INDICATES FEW OR NO CLOUDS BELOW 12,000 FEET WITH NO
SIGNIFICANT WEATHER AND/OR NO OBSTRUCTIONS TO VISIBILITY.

NYZ032-033-038>043-046>054-057>066-NYZ062>081-270700-
EAST


CITY           SKY/WX    TMP DP  RH WIND       PRES   REMARKS
ALBANY         CLOUDY    46  33  60 W7        29.69S
GLENS FALLS    CLOUDY    48  32  53 NW7       29.67S
POUGHKEEPSIE   CLOUDY    50  32  50 CALM      29.67S
MONTGOMERY     CLOUDY    48  31  51 NW8       29.67S
WHITE PLAINS   MOCLDY    48  31  51 NW7       29.66S
ISLIP          CLOUDY    50  32  50 W7        29.65S
NEW YORK CITY  MOCLDY    51  31  46 NW9       29.68F
CENTRAL PARK   CLOUDY    51  29  42 W6        29.71S
$$

NYZ005>009-017-018-044>046-055-056-270700-
CENTRAL


CITY           SKY/WX    TMP DP  RH WIND       PRES   REMARKS
FULTON         CLOUDY    42  35  76 W3        29.73F
SYRACUSE       CLOUDY    44  35  70 W3        29.73F
ROME           CLOUDY    41  33  73 CALM      29.74F
ELMIRA         CLOUDY    44  33  65 W3        29.75S
BINGHAMTON     CLOUDY    38  32  79 W5        29.71S WCI  34
MONTICELLO     CLOUDY    41  30  65 NW12      29.70S
$$

NYZ026>034-041>043-270700-
NORTH


CITY           SKY/WX    TMP DP  RH WIND       PRES   REMARKS
WATERTOWN      LGT RAIN  41  37  86 CALM      29.74S
FORT DRUM      NOT AVBL
MASSENA        CLOUDY    42  36  79 NW6       29.73S
SARANAC LAKE   CLOUDY    38  36  92 CALM      29.65F
PLATTSBURGH    CLOUDY    42  41  96 CALM      29.67F
$$

NYZ001>004-010>016-019>021-270700-
WEST


CITY           SKY/WX    TMP DP  RH WIND       PRES   REMARKS
NIAGARA FALLS  LGT RAIN  43  33  68 NW8       29.79S
BUFFALO        CLOUDY    44  32  62 NW9       29.79F
DUNKIRK        CLOUDY    42  35  76 SW6       29.82F
JAMESTOWN      CLOUDY    39  28  65 NW8       29.79F WCI  34
WELLSVILLE     CLOUDY    39  30  70 NW9       29.76F WCI  33
ROCHESTER      CLOUDY    45  34  65 NW7       29.77S
PENN YAN       CLOUDY    43  35  73 W6        29.75S
$$

             KEY
       WCI = WIND CHILL INDEX
       VSB = VISIBILITY
       HX  = HEAT INDEX
$$



USA.gov is the U.S. government's official web portal to all federal, state and local government web resources and services.